Starlink 3548

operational
NORAD ID: 51864 Int'l Des: 2022-022 Owner: SPXS Country: US Constellation: starlink
LEOCIRCULAR

Starlink 3548について

説明を読み込み中...

リアルタイム位置

3D地球を読み込み中...

次回通過

高度履歴

Altitude vs Time

uPlot chart will show altitude changes over time

軌道要素

1 51864U 22022N 25351.30743104 .00002604 00000-0 18159-3 0 9999
2 51864 53.2192 18.8717 0001370 78.9998 281.1149 15.08850849210727
Epoch: Dec 17, 2025 • Age: 13 hours

現在のステータス

高度 541.7 km
速度 7.60 km/s
衛星直下点 36.00°N, 17.89°E
打ち上げ日 Mar 3, 2022
運用期間 3.7 years
タイプ internet

技術仕様

分類 Payload
質量 297.00 kg
乾燥質量 275.00 kg
総質量 297.00 kg
長さ 0.20 m
直径 2.80 m
スパン 9.00 m
形状 Box + pan
製造者 SPXS
バスタイプ Starlink
フェーズステータス In Orbit
所有者/国 SPXS/US

大規模コンステレーション

Loading constellations...